FW0697 Weather Reports


time (UTC)temp
C
wind
direction
speed
KPH
gust
KPH
rain 1hr
cm
rain 24hr
cm
rain mn
cm
humidity
%
barometer
mb
20260906100004 25 37 3.2 8.0 0.00 0.00 0.00 84 1011.3
20260906095505 25 26 4.8 11.3 0.00 0.00 0.00 83 1011.2
20260906094504 25 11 6.4 16.1 0.00 0.00 0.00 83 1011.2
20260906094005 25 18 4.8 16.1 0.00 0.00 0.00 83 1011.2
20260906093504 25 10 6.4 16.1 0.00 0.00 0.00 82 1011.1
20260906093005 25 8 6.4 20.9 0.00 0.00 0.00 82 1011.0
20260906092504 25 13 4.8 20.9 0.00 0.00 0.00 82 1010.9
20260906092005 25 15 4.8 16.1 0.00 0.00 0.00 82 1011.0
20260906091505 25 16 1.6 9.7 0.00 0.00 0.00 82 1011.0
20260906091005 25 15 3.2 14.5 0.00 0.00 0.00 81 1010.8
20260906090504 25 15 4.8 14.5 0.00 0.00 0.00 81 1010.6
20260906090005 25 15 1.6 11.3 0.00 0.00 0.00 81 1010.7
20260906085505 25 16 1.6 12.9 0.00 0.00 0.00 81 1010.6
20260906085005 25 16 1.6 12.9 0.00 0.00 0.00 81 1010.7
20260906084505 25 17 1.6 11.3 0.00 0.00 0.00 81 1010.8
20260906084005 25 17 4.8 11.3 0.00 0.00 0.00 81 1010.6
20260906083005 26 17 3.2 12.9 0.00 0.00 0.00 81 1010.8
20260906082505 26 16 1.6 6.4 0.00 0.00 0.00 81 1010.8
20260906082005 26 16 1.6 11.3 0.00 0.00 0.00 81 1010.8
20260906081505 26 16 3.2 11.3 0.00 0.00 0.00 82 1010.8
20260906081006 26 17 1.6 6.4 0.00 0.00 0.00 82 1010.9
20260906080505 26 16 1.6 6.4 0.00 0.00 0.00 82 1011.0
20260906080006 26 16 1.6 6.4 0.00 0.00 0.00 81 1010.8
20260906074504 26 21 3.2 12.9 0.00 0.00 0.00 81 1010.7
20260906074005 26 22 3.2 11.3 0.00 0.00 0.00 80 1010.5
20260906073505 26 23 3.2 9.7 0.00 0.00 0.00 80 1010.6
20260906073005 26 23 3.2 9.7 0.00 0.00 0.00 79 1010.6
20260906072505 26 25 4.8 12.9 0.00 0.00 0.00 79 1010.6
20260906071505 27 29 3.2 11.3 0.00 0.00 0.00 78 1010.7
20260906071005 27 30 3.2 11.3 0.00 0.00 0.00 78 1010.7
20260906070504 27 32 1.6 6.4 0.00 0.00 0.00 78 1010.8
20260906070005 27 32 0.0 6.4 0.00 0.00 0.00 78 1010.9
20260906065504 27 32 1.6 6.4 0.00 0.00 0.00 77 1010.9
20260906065005 27 32 1.6 6.4 0.00 0.00 0.00 77 1010.9
20260906064504 27 33 0.0 3.2 0.00 0.00 0.00 77 1010.9
20260906064005 27 33 1.6 4.8 0.00 0.00 0.00 77 1011.0
20260906063505 27 32 1.6 6.4 0.00 0.00 0.00 76 1010.9
20260906063005 27 33 3.2 8.0 0.00 0.00 0.00 76 1010.9
20260906062505 27 33 3.2 8.0 0.00 0.00 0.00 76 1011.1
20260906062005 27 34 1.6 6.4 0.00 0.00 0.00 75 1011.1
20260906061005 27 34 1.6 8.0 0.00 0.00 0.00 75 1011.0
20260906060504 27 33 1.6 8.0 0.00 0.00 0.00 75 1011.0
20260906055505 28 34 3.2 8.0 0.00 0.00 0.00 74 1011.0
20260906055005 28 38 3.2 11.3 0.00 0.00 0.00 74 1010.9
20260906054505 28 43 3.2 11.3 0.00 0.00 0.00 73 1011.0
20260906054005 28 53 3.2 6.4 0.00 0.00 0.00 73 1010.9
20260906053504 28 55 1.6 6.4 0.00 0.00 0.00 73 1010.8
20260906053005 28 56 1.6 6.4 0.00 0.00 0.00 72 1010.9
20260906052505 28 56 1.6 6.4 0.00 0.00 0.00 72 1010.9
20260906052005 28 57 0.0 1.6 0.00 0.00 0.00 72 1010.9
20260906051505 28 0 0.0 0.0 0.00 0.00 0.00 71 1010.8
20260906051005 28 57 0.0 1.6 0.00 0.00 0.00 71 1010.5
20260906050005 28 0 0.0 0.0 0.00 0.00 0.00 71 1010.7
20260906045504 28 0 0.0 0.0 0.00 0.00 0.00 70 1010.7
20260906045006 28 57 0.0 4.8 0.00 0.00 0.00 70 1010.6
20260906044505 28 57 1.6 4.8 0.00 0.00 0.00 70 1010.6
20260906044006 28 57 1.6 4.8 0.00 0.00 0.00 70 1010.6
20260906043505 28 56 1.6 8.0 0.00 0.00 0.00 69 1010.6
20260906043005 28 55 1.6 8.0 0.00 0.00 0.00 69 1010.7
20260906042504 29 54 0.0 8.0 0.00 0.00 0.00 69 1010.5
20260906042005 29 53 1.6 6.4 0.00 0.00 0.00 69 1010.3
20260906041504 29 57 1.6 8.0 0.00 0.00 0.00 69 1010.5
20260906041005 29 59 1.6 8.0 0.00 0.00 0.00 69 1010.6
20260906040504 29 0 0.0 0.0 0.00 0.00 0.00 68 1010.3
20260906040005 29 0 0.0 0.0 0.00 0.00 0.00 68 1010.3
20260906035505 29 0 0.0 0.0 0.00 0.00 0.00 68 1010.1
20260906035005 29 0 0.0 0.0 0.00 0.00 0.00 68 1010.3
20260906034505 29 0 0.0 0.0 0.00 0.00 0.00 67 1010.2
20260906034005 29 0 0.0 0.0 0.00 0.00 0.00 67 1010.3
20260906033504 29 0 0.0 0.0 0.00 0.00 0.00 67 1010.1
20260906032505 29 0 0.0 0.0 0.00 0.00 0.00 66 1010.1
20260906032005 29 0 0.0 0.0 0.00 0.00 0.00 67 1010.1
20260906031504 29 0 0.0 0.0 0.00 0.00 0.00 67 1010.1
20260906031005 29 0 0.0 0.0 0.00 0.00 0.00 66 1010.1
20260906030504 29 0 0.0 0.0 0.00 0.00 0.00 66 1010.1
20260906025504 30 0 0.0 0.0 0.00 0.00 0.00 66 1010.4
20260906025005 30 0 0.0 0.0 0.00 0.00 0.00 66 1010.4
20260906024005 29 0 0.0 0.0 0.00 0.00 0.00 66 1010.2
20260906022504 29 0 0.0 0.0 0.00 0.00 0.00 66 1010.4
20260906022005 29 0 0.0 0.0 0.00 0.00 0.00 66 1010.3
20260906021504 29 0 0.0 0.0 0.00 0.00 0.00 65 1010.1
20260906020006 30 0 0.0 0.0 0.00 0.00 0.00 64 1009.8
20260906015505 30 0 0.0 0.0 0.00 0.00 0.00 65 1009.8
20260906015005 30 0 0.0 0.0 0.00 0.00 0.00 64 1009.8
20260906014504 30 0 0.0 0.0 0.00 0.00 0.00 64 1009.8
20260906014005 30 0 0.0 0.0 0.00 0.00 0.00 65 1009.6
20260906013504 31 0 0.0 0.0 0.00 0.00 0.00 65 1009.5
20260906013005 31 0 0.0 0.0 0.00 0.00 0.00 65 1009.4
20260906012504 31 0 0.0 0.0 0.00 0.00 0.00 63 1009.3
20260906011005 32 0 0.0 0.0 0.00 0.00 0.00 64 1009.1
20260906010504 32 0 0.0 0.0 0.00 0.00 0.00 64 1009.0
20260906005504 33 43 6.4 12.9 0.00 0.00 0.00 60 1008.8
20260906005005 33 349 4.8 8.0 0.00 0.00 0.00 57 1008.8
20260906004504 33 318 3.2 4.8 0.00 0.00 0.00 58 1008.7
20260906004005 33 318 1.6 4.8 0.00 0.00 0.00 58 1008.7
20260906003005 33 0 0.0 0.0 0.00 0.00 0.00 59 1008.8
20260906002505 33 0 0.0 0.0 0.00 0.00 0.00 59 1009.0
20260906002005 33 0 0.0 0.0 0.00 0.00 0.00 59 1009.0
20260906001504 33 0 0.0 0.0 0.00 0.00 0.00 58 1009.1
20260906001005 33 0 0.0 0.0 0.00 0.00 0.00 58 1009.1
20260906000504 34 0 0.0 0.0 0.00 0.00 0.00 59 1009.3
20260906000005 34 317 1.6 6.4 0.00 0.00 0.00 58 1009.3
20260905235504 34 317 3.2 6.4 0.00 0.00 0.00 58 1009.4
20260905235005 34 317 3.2 9.7 0.00 0.00 0.00 58 1009.4
20260905234005 34 320 1.6 8.0 0.00 0.00 0.00 57 1009.4
20260905233504 34 321 3.2 8.0 0.00 0.00 0.00 57 1009.3
20260905233005 34 321 3.2 6.4 0.00 0.00 0.00 56 1009.4
20260905232504 35 322 3.2 8.0 0.00 0.00 0.00 56 1009.4
20260905232005 35 323 1.6 12.9 0.00 0.00 0.00 56 1009.3
20260905231504 35 326 1.6 12.9 0.00 0.00 0.00 56 1009.3
20260905231005 35 327 0.0 6.4 0.00 0.00 0.00 55 1009.3
20260905230504 35 0 0.0 0.0 0.00 0.00 0.00 54 1009.3
20260905230005 35 0 0.0 0.0 0.00 0.00 0.00 54 1009.2
20260905225504 35 0 0.0 0.0 0.00 0.00 0.00 53 1009.1
20260905225005 35 0 0.0 0.0 0.00 0.00 0.00 53 1009.1
20260905224004 35 325 3.2 14.5 0.00 0.00 0.00 52 1009.1
20260905222504 36 344 4.8 14.5 0.00 0.00 0.00 50 1008.8
20260905222005 36 9 4.8 16.1 0.00 0.00 0.00 50 1008.9
20260905221504 36 9 4.8 16.1 0.00 0.00 0.00 49 1009.0
20260905221005 36 340 4.8 14.5 0.00 0.00 0.00 50 1008.8
20260905220505 36 318 6.4 16.1 0.00 0.00 0.00 50 1008.9
20260905220004 36 315 6.4 17.7 0.00 0.00 0.00 50 1008.9
20260905215505 37 331 4.8 17.7 0.00 0.00 0.00 49 1009.0
20260905215005 37 325 4.8 16.1 0.00 0.00 0.00 50 1009.1
20260905214005 37 305 4.8 17.7 0.00 0.00 0.00 49 1008.9
20260905213005 37 300 6.4 19.3 0.00 0.00 0.00 49 1009.0
20260905212005 37 227 1.6 16.1 0.00 0.00 0.00 50 1009.0
20260905211505 37 326 3.2 14.5 0.00 0.00 0.00 50 1008.9
20260905211004 37 300 4.8 14.5 0.00 0.00 0.00 50 1009.0
20260905210504 37 304 6.4 16.1 0.00 0.00 0.00 49 1009.1
20260905210005 37 281 6.4 16.1 0.00 0.00 0.00 50 1009.0
20260905205504 37 222 4.8 14.5 0.00 0.00 0.00 50 1009.2
20260905205005 37 225 6.4 14.5 0.00 0.00 0.00 50 1009.2
20260905204504 37 224 4.8 14.5 0.00 0.00 0.00 51 1009.3
20260905204005 37 212 1.6 8.0 0.00 0.00 0.00 51 1009.4
20260905202004 37 232 3.2 16.1 0.00 0.00 0.00 51 1009.6
20260905201505 37 254 4.8 14.5 0.00 0.00 0.00 50 1009.8
20260905201004 37 248 4.8 17.7 0.00 0.00 0.00 50 1009.7
20260905200504 37 226 3.2 17.7 0.00 0.00 0.00 50 1009.9
20260905200005 37 0 0.0 0.0 0.00 0.00 0.00 50 1009.9
20260905195504 36 327 0.0 3.2 0.00 0.00 0.00 51 1010.2
20260905195005 36 324 1.6 8.0 0.00 0.00 0.00 50 1010.2
20260905194504 36 321 1.6 14.5 0.00 0.00 0.00 50 1010.2
20260905194004 36 317 1.6 14.5 0.00 0.00 0.00 50 1010.4
20260905192504 36 292 0.0 8.0 0.00 0.00 0.00 50 1010.8
20260905192005 36 230 0.0 8.0 0.00 0.00 0.00 50 1010.8
20260905191005 36 0 0.0 0.0 0.00 0.00 0.00 50 1010.8
20260905190004 36 292 1.6 9.7 0.00 0.00 0.00 51 1011.0
20260905185504 36 292 1.6 9.7 0.00 0.00 0.00 50 1011.1
20260905185005 36 233 0.0 14.5 0.00 0.00 0.00 50 1011.1
20260905184504 36 233 1.6 14.5 0.00 0.00 0.00 51 1011.3
20260905182504 35 0 0.0 0.0 0.00 0.00 0.00 52 1011.5
20260905182005 35 0 0.0 0.0 0.00 0.00 0.00 52 1011.7
20260905181504 35 0 0.0 0.0 0.00 0.00 0.00 53 1011.7
20260905181004 35 0 0.0 0.0 0.00 0.00 0.00 53 1011.6
20260905180505 35 0 0.0 0.0 0.00 0.00 0.00 53 1011.8
20260905180004 35 0 0.0 0.0 0.00 0.00 0.00 55 1011.8
20260905175004 35 0 0.0 0.0 0.00 0.00 0.00 53 1011.9
20260905174504 34 0 0.0 0.0 0.00 0.00 0.00 53 1011.9
20260905174005 34 0 0.0 0.0 0.00 0.00 0.00 53 1012.0
20260905173504 34 0 0.0 0.0 0.00 0.00 0.00 53 1011.9
20260905173005 34 0 0.0 0.0 0.00 0.00 0.00 52 1012.0
20260905172504 34 0 0.0 0.0 0.00 0.00 0.00 53 1012.0
20260905172005 34 0 0.0 0.0 0.00 0.00 0.00 53 1012.2
20260905171004 34 0 0.0 0.0 0.00 0.00 0.00 53 1012.1
20260905170504 34 0 0.0 0.0 0.00 0.00 0.00 53 1012.2
20260905170004 34 0 0.0 0.0 0.00 0.00 0.00 54 1012.4
20260905165504 33 0 0.0 0.0 0.00 0.00 0.00 55 1012.4
20260905164504 33 0 0.0 0.0 0.00 0.00 0.00 56 1012.7
20260905164005 33 0 0.0 0.0 0.00 0.00 0.00 56 1012.8
20260905163004 33 120 0.0 1.6 0.00 0.00 0.00 56 1013.0
20260905162504 33 120 0.0 1.6 0.00 0.00 0.00 56 1013.2
20260905162004 33 0 0.0 0.0 0.00 0.00 0.00 58 1013.1
20260905161004 32 0 0.0 0.0 0.00 0.00 0.00 60 1012.9
20260905160504 32 199 0.0 3.2 0.00 0.00 0.00 60 1012.8
20260905160004 32 152 1.6 8.0 0.00 0.00 0.00 60 1012.9
20260905155504 32 139 1.6 8.0 0.00 0.00 0.00 61 1013.0
20260905155005 32 127 1.6 6.4 0.00 0.00 0.00 62 1013.0
20260905154504 32 127 1.6 6.4 0.00 0.00 0.00 62 1013.0
20260905154005 32 127 0.0 6.4 0.00 0.00 0.00 61 1013.1
20260905153504 31 0 0.0 0.0 0.00 0.00 0.00 62 1013.2
20260905153005 31 0 0.0 0.0 0.00 0.00 0.00 62 1013.1
20260905152504 31 0 0.0 0.0 0.00 0.00 0.00 63 1013.2
20260905152004 31 98 1.6 8.0 0.00 0.00 0.00 64 1013.2
20260905151504 31 98 1.6 8.0 0.00 0.00 0.00 66 1013.2
20260905150504 30 96 0.0 9.7 0.00 0.00 0.00 67 1013.1
20260905150005 30 94 3.2 9.7 0.00 0.00 0.00 68 1013.3
20260905145504 29 67 3.2 11.3 0.00 0.00 0.00 68 1013.4
20260905144504 28 93 4.8 12.9 0.00 0.00 0.00 69 1013.5
20260905144004 28 99 4.8 12.9 0.00 0.00 0.00 70 1013.4
20260905143504 28 87 4.8 12.9 0.00 0.00 0.00 71 1013.6
20260905143004 28 99 4.8 12.9 0.00 0.00 0.00 72 1013.5
20260905142004 27 34 3.2 12.9 0.00 0.00 0.00 75 1013.7
20260905141504 27 28 4.8 12.9 0.00 0.00 0.00 75 1013.7
20260905140504 26 34 4.8 14.5 0.00 0.00 0.00 76 1013.8
20260905140005 26 55 4.8 14.5 0.00 0.00 0.00 78 1014.0
20260905135504 26 57 4.8 11.3 0.00 0.00 0.00 80 1014.0
20260905135004 26 31 3.2 11.3 0.00 0.00 0.00 82 1013.8
20260905134504 26 17 3.2 11.3 0.00 0.00 0.00 82 1014.1
20260905133504 26 20 4.8 14.5 0.00 0.00 0.00 82 1014.2
20260905133004 26 34 6.4 14.5 0.00 0.00 0.00 82 1014.0
20260905132504 26 41 6.4 17.7 0.00 0.00 0.00 82 1014.1
20260905132004 26 24 6.4 17.7 0.00 0.00 0.00 81 1014.1
20260905131504 26 8 8.0 17.7 0.00 0.00 0.00 82 1014.4
20260905131004 26 12 4.8 16.1 0.00 0.00 0.00 81 1014.7
20260905130004 26 17 4.8 14.5 0.00 0.00 0.00 81 1014.6
20260905125504 26 23 6.4 14.5 0.00 0.00 0.00 80 1014.3
20260905125005 27 21 6.4 20.9 0.00 0.00 0.00 79 1014.1
20260905124504 27 14 4.8 20.9 0.00 0.00 0.00 78 1014.1
20260905124004 27 26 1.6 17.7 0.00 0.00 0.00 78 1014.2
20260905123504 27 55 1.6 4.8 0.00 0.00 0.00 77 1013.4
20260905123005 27 55 1.6 6.4 0.00 0.00 0.00 78 1013.3
20260905122504 27 51 4.8 11.3 0.00 0.00 0.00 78 1012.9
20260905122005 27 44 4.8 11.3 0.00 0.00 0.00 78 1012.8
20260905121504 27 27 4.8 11.3 0.00 0.00 0.00 79 1012.8
20260905121005 27 20 3.2 11.3 0.00 0.00 0.00 78 1012.9
20260905120004 27 15 1.6 9.7 0.00 0.00 0.00 79 1013.2
20260905115503 27 15 1.6 9.7 0.00 0.00 0.00 79 1013.0
20260905115004 27 16 1.6 6.4 0.00 0.00 0.00 78 1013.1
20260905114504 27 12 1.6 9.7 0.00 0.00 0.00 78 1013.0
20260905114004 27 11 1.6 9.7 0.00 0.00 0.00 78 1012.6
20260905113504 27 10 0.0 4.8 0.00 0.00 0.00 78 1012.6
20260905113005 27 10 0.0 6.4 0.00 0.00 0.00 79 1012.5
20260905112504 27 9 1.6 6.4 0.00 0.00 0.00 79 1012.4
20260905112004 27 9 3.2 6.4 0.00 0.00 0.00 79 1012.5
20260905111503 27 8 3.2 9.7 0.00 0.00 0.00 79 1012.5
20260905111004 27 17 3.2 12.9 0.00 0.00 0.00 79 1012.4
20260905110504 27 31 4.8 12.9 0.00 0.00 0.00 79 1012.2
20260905110004 27 29 6.4 19.3 0.00 0.00 0.00 79 1012.2
20260905105504 28 6 6.4 19.3 0.00 0.00 0.00 79 1012.2
20260905105004 28 327 3.2 17.7 0.00 0.00 0.00 78 1012.1
20260905104504 28 304 3.2 6.4 0.00 0.00 0.00 77 1011.6
20260905104004 28 303 3.2 6.4 0.00 0.00 0.00 77 1011.6
20260905103004 28 304 1.6 4.8 0.00 0.00 0.00 76 1011.4
20260905102504 28 303 1.6 4.8 0.00 0.00 0.00 76 1011.5
20260905102004 28 304 1.6 8.0 0.00 0.00 0.00 76 1011.5
20260905101504 28 304 3.2 8.0 0.00 0.00 0.00 76 1011.5
20260905101005 28 306 4.8 9.7 0.00 0.00 0.00 75 1011.5
20260905100504 28 312 3.2 9.7 0.00 0.00 0.00 75 1011.5